Pleasanton, CA

8:04 AM PDT on September 29, 2016 (GMT -0700)
Livermore Municipal

Weather History for KLVK - July, 2013

Change the Weather History Date:

Thursday, July 18, 2013

  Actual Average Record
Temperature  
Mean Temperature 74 °F 73 °F  
Max Temperature 93 °F 88 °F 107 °F (1961)
Min Temperature 54 °F 57 °F 46 °F (1963)
Degree Days  
Heating Degree Days 0 0  
Month to date heating degree days 0 0  
Since 1 June heating degree days 5 32  
Since 1 July heating degree days 0 0  
Cooling Degree Days 9 8  
Month to date cooling degree days 168 130  
Year to date cooling degree days 459 293  
Since 1 June cooling degree days 358 240  
Growing Degree Days 22 (Base 50)    
Moisture  
Dew Point 49 °F    
Average Humidity 53    
Maximum Humidity 93    
Minimum Humidity 13    
Precipitation  
Precipitation 0.00 in 0.00 in 0.00 in (2016)
Month to date precipitation 0.00 0.00  
Year to date precipitation 2.12 9.90  
Since 1 July precipitation 0.00  
Sea Level Pressure  
Sea Level Pressure 29.99 in    
Wind  
Wind Speed 8 mph (West)    
Max Wind Speed 17 mph    
Max Gust Speed 21 mph    
Visibility 10 miles    
Events      
T = Trace of Precipitation, MM = Missing Value Source: NWS Daily Summary

Daily Weather History Graph

Daily Weather History Graph

Search for Another Location

Airport or City:

Trip Planner

Search our weather history database for the weather conditions in past years. The results will help you decide how hot, cold, wet, or windy it might be!

Date:

Astronomy

Jul. 18, 2013 Rise Set
Actual Time 6:00 AM PDT 8:26 PM PDT
Civil Twilight 5:29 AM PDT 8:56 PM PDT
Nautical Twilight 4:52 AM PDT 9:33 PM PDT
Astronomical Twilight 4:11 AM PDT 10:14 PM PDT
Moon 4:30 PM PDT (7/18) 1:53 AM PDT (7/18)
Length of Visible Light 15h 26m
Length of Day
14h 26m
Waxing Gibbous, 78% of the Moon is Illuminated
Jul 18
Waxing Gibbous
Jul 22
Full
Jul 29
Last Quarter
Aug 6
New
Aug 14
First Quarter

Hourly Weather History & Observations

Time (PDT) Temp. Dew Point Humidity Pressure Visibility Wind Dir Wind Speed Gust Speed Precip Events Conditions
12:53 AM 57.0 °F 53.1 °F 87% 30.05 in 10.0 mi WNW 8.1 mph - N/A   Clear
1:53 AM 55.9 °F 53.1 °F 90% 30.05 in 10.0 mi NW 6.9 mph - N/A   Clear
2:53 AM 55.0 °F 53.1 °F 93% 30.03 in 10.0 mi WNW 5.8 mph - N/A   Clear
3:21 AM 55.4 °F 53.6 °F 94% 30.04 in 10.0 mi NW 5.8 mph - N/A   Partly Cloudy
3:53 AM 54.0 °F 52.0 °F 93% 30.03 in 8.0 mi West 5.8 mph - N/A   Partly Cloudy
4:17 AM 55.4 °F 53.6 °F 94% 30.03 in 8.0 mi West 5.8 mph - N/A   Mostly Cloudy
4:53 AM 55.9 °F 53.1 °F 90% 30.02 in 9.0 mi West 6.9 mph - N/A   Overcast
5:53 AM 55.0 °F 53.1 °F 93% 30.03 in 9.0 mi WSW 5.8 mph - N/A   Overcast
6:53 AM 55.0 °F 53.1 °F 93% 30.04 in 5.0 mi SW 3.5 mph - N/A   Overcast
7:53 AM 57.0 °F 53.1 °F 87% 30.05 in 9.0 mi Calm Calm - N/A   Overcast
8:25 AM 57.0 °F 53.1 °F 87% 30.05 in 9.0 mi Calm Calm - N/A   Scattered Clouds
8:38 AM 59.0 °F 53.6 °F 82% 30.06 in 10.0 mi WSW 4.6 mph - N/A   Scattered Clouds
8:53 AM 61.0 °F 53.1 °F 75% 30.06 in 10.0 mi Variable 3.5 mph - N/A   Clear
9:53 AM 66.0 °F 53.1 °F 63% 30.04 in 10.0 mi Calm Calm - N/A   Clear
10:53 AM 73.9 °F 52.0 °F 46% 30.02 in 10.0 mi Variable 3.5 mph - N/A   Clear
11:53 AM 81.0 °F 51.1 °F 35% 30.00 in 10.0 mi West 4.6 mph - N/A   Clear
12:53 PM 87.1 °F 41.0 °F 20% 29.98 in 10.0 mi SW 9.2 mph - N/A   Clear
1:53 PM 90.0 °F 39.9 °F 17% 29.96 in 10.0 mi West 8.1 mph - N/A   Clear
2:53 PM 91.9 °F 34.0 °F 13% 29.95 in 10.0 mi WNW 13.8 mph - N/A   Clear
3:53 PM 91.9 °F 35.1 °F 13% 29.94 in 10.0 mi West 10.4 mph - N/A   Clear
4:53 PM 91.0 °F 34.0 °F 13% 29.92 in 10.0 mi WNW 15.0 mph - N/A   Clear
5:53 PM 88.0 °F 42.1 °F 20% 29.91 in 10.0 mi WNW 13.8 mph - N/A   Clear
6:53 PM 81.0 °F 46.0 °F 29% 29.91 in 10.0 mi WNW 13.8 mph - N/A   Clear
7:53 PM 75.0 °F 50.0 °F 41% 29.92 in 10.0 mi West 10.4 mph - N/A   Clear
8:53 PM 70.0 °F 50.0 °F 49% 29.93 in 10.0 mi WNW 6.9 mph - N/A   Clear
9:53 PM 66.0 °F 51.1 °F 59% 29.95 in 10.0 mi NW 8.1 mph - N/A   Clear
10:53 PM 63.0 °F 51.1 °F 65% 29.94 in 10.0 mi NW 6.9 mph - N/A   Clear
11:53 PM 62.1 °F 50.0 °F 65% 29.94 in 10.0 mi WNW 6.9 mph - N/A   Clear